STARLINK-3335 (50806 NORAD) Tracking and Keplerian Element Data

This shows tracking and keplerian element data for the satellite.

Feedback or suggestion? Click here.




ElementValue
Catalog50806
NameSTARLINK-3335
Epoch Orbit130
Epoch Day140.58334491
Epoch Year2022
RAAN275.0624
Inclination53.2146
Eccentricity0.0001925
Argument of Perigee51.1698
Mean Anonmoly70.3033
Mean Motion15.08842131
Decay Rate-8.812E-05
L11 50806U 22001D 22140.58334491 -.00008812 00000+0 -53620-3 0 9999
L22 50806 53.2146 275.0624 0001925 51.1698 70.3033 15.08842131 1308

Live tracking and technical data element details for STARLINK-3335 (NORAD 50806). STARLINK-3335 can be tracked NOW for your location showing map with azimuth and elevation plus other details from your city location.

Track the satellite on the map from your city or location and see movement details for azimuth, elevation, latitude, longitude, range, height, and movement on the map or in text.







IsCatalogInMostPopularTable: catalog: 50806, numindb: 17
Update: records affected: 1



GetName: 50806 STARLINK-3335

Hit Count: updated at: Mon, 23 May 2022 19:45:50 GMT